[[{"header":{"parameterUnit":"m.s-1","parameterCategory":1,"la1":30.2991,"la2":30.254,"lo1":-89.0895,"lo2":-89.0444,"dy":0.0017,"dx":0.0017,"nx":28,"ny":28,"refTime":"2023-11-05T03:00:00:Z","depth":0,"parameterNumber":2,"parameterNumberName":"U-component_of_WINDS"},"data":[0,0,0,0,0,0,0,0,0,0,0,0,0,0,0,0,0,0,0,0,0,0,0,0,0,0,0,0,0,0,0,0,0,0,0,0,0,0,0,0,0,0,0,0,0,0,0,0,0,0,0,0,0,0,0,0,0,0,0.0358,0.0358,0,0.0359,0.0359,0.0359,0.042,0.0422,0.0424,0.0425,0.0426,0.0424,0.0423,0,0,0,0,0,0,0,0,0,0,0,0,0,0.0408,0.0407,0.0358,0.0358,0.0358,0.0359,0.0359,0.0359,0.042,0.0422,0.0424,0.0426,0.0426,0.0425,0.0423,0,0,0,0,0,0,0,0,0,0,0,0,0,0.0395,0.0406,0.0358,0.0388,0.0391,0.0359,0.0359,0.0359,0.042,0.0422,0.0425,0.0427,0.0427,0.0425,0.0423,0.0361,0,0,0.0416,0.0415,0,0,0,0,0,0,0,0,0.0396,0.0393,0.0384,0.0386,0.0389,0.0392,0.0377,0.036,0.0419,0.0409,0.0425,0.0428,0.0413,0.0412,0.0407,0.0361,0.0362,0.0416,0.0414,0.0413,0.0413,0,0,0,0,0,0,0,0.0397,0.0394,0.0358,0.0384,0.0387,0.0402,0.0403,0.0374,0.0397,0.041,0.0414,0.0414,0.0415,0.0409,0.0407,0.0362,0.0416,0.0414,0.0413,0.0412,0.0266,0.0264,0,0,0,0,0,0,0.0393,0.0394,0.0358,0.0359,0.0399,0.0399,0.04,0.0389,0.0398,0.0402,0.0412,0.0417,0.0411,0.041,0.0408,0.0337,0.0414,0.0411,0.041,0.0269,0.0266,0.0263,0,0,0,0,0,0,0.0394,0.039,0.0358,0.0377,0.0375,0.0396,0.0383,0.0388,0.0382,0.0399,0.0404,0.0402,0.0413,0.0411,0.0373,0.0337,0.041,0.0408,0.0272,0.0268,0.0265,0.0194,0,0,0,0,0,0,0.0395,0.039,0.0366,0.0376,0.0373,0.0323,0.038,0.0386,0.0378,0.0384,0.0391,0.0394,0.0415,0.0376,0.037,0.0336,0.0407,0.0275,0.027,0.0266,0.0199,0.0188,0.0178,0,0,0,0,0,0.0397,0.0346,0.0365,0.036,0.0345,0.0321,0.0319,0.0344,0.0375,0.0352,0.0363,0.0394,0.0342,0.0371,0.0366,0.033,0.0278,0.0272,0.0266,0.0204,0.019,0.0179,0,0,0,0,0,0,0.0331,0.0348,0.0369,0.032,0.0319,0.0331,0.0303,0.0329,0.0318,0.0325,0.0356,0.0357,0.0314,0.0319,0.035,0.0272,0.0315,0.0308,0.027,0.0257,0.0247,0.0246,0.0405,0,0,0,0,0,0.0311,0.029,0.0306,0.0261,0.026,0.0281,0.0272,0.0291,0.0291,0.0291,0.0299,0.0297,0.0281,0.027,0.0255,0.0201,0.0203,0.0174,0.0163,0.0154,0.0148,0.0119,0.0106,0.0244,0.0244,0.0245,0,0,0.0269,0.0276,0.026,0.0248,0.025,0.0227,0.028,0.0254,0.0238,0.0287,0.0251,0.0257,0.0258,0.0211,0.0191,0.0213,0.011,0.0147,0.014,0.0138,0.0112,0.0099,0.0087,0.024,0.0241,0.0242,0,0,0.0181,0.0184,0.0147,0.0147,0.0149,0.0164,0.0155,0.0164,0.017,0.0135,0.0171,0.0152,0.0123,0.0122,0.0117,0.003,0.0057,0.0024,-0.0031,-0.0059,-0.007,-0.0079,-0.0111,-0.0123,0.0018,0.0017,0.0017,0,0.0128,0.0096,0.0125,0.0097,0.009,0.0134,0.0097,0.0096,0.0092,0.0086,0.0112,0.0077,0.008,0.0034,0.0012,0.0007,-0.0002,0.0023,-0.0071,-0.008,-0.0088,-0.0118,-0.013,0.0013,0.0014,0.0014,0.0015,0,0.0031,0.0009,-0.0021,-0.0025,-0.0035,-0.0068,-0.0044,-0.0057,-0.0036,-0.0024,-0.006,-0.0054,-0.0067,-0.0076,-0.0056,-0.012,-0.0106,-0.0076,-0.0031,-0.0106,-0.0133,-0.0145,0.0007,0.0009,0.001,0.0011,0,0,-0.0099,-0.0086,-0.0098,-0.0099,-0.0094,-0.0111,-0.0141,-0.0153,-0.0165,-0.0168,-0.0193,-0.0218,-0.0191,-0.0196,-0.0176,-0.02,-0.027,-0.0168,-0.0167,-0.0187,-0.034,-0.0362,-0.0376,-0.0251,-0.0254,-0.0255,-0.034,0,-0.0185,-0.0236,-0.021,-0.0265,-0.0285,-0.0244,-0.027,-0.027,-0.0259,-0.0275,-0.0263,-0.0281,-0.0243,-0.0246,-0.0269,-0.0257,-0.0301,-0.0251,-0.0275,-0.0276,-0.0277,-0.039,-0.0414,-0.0495,-0.035,-0.0352,-0.0353,0,-0.0291,-0.0299,-0.0355,-0.0346,-0.0353,-0.0378,-0.0386,-0.0402,-0.04,-0.0391,-0.0396,-0.037,-0.0399,-0.0354,-0.0394,-0.0361,-0.0369,-0.0365,-0.0367,-0.0369,-0.032,-0.0396,-0.052,-0.0532,-0.037,-0.0369,-0.0367,0,-0.0381,-0.0406,-0.0442,-0.0444,-0.0434,-0.0452,-0.0449,-0.0445,-0.0454,-0.0461,-0.0466,-0.0477,-0.0483,-0.0492,-0.0469,-0.0439,-0.0512,-0.0466,-0.0505,-0.0506,-0.0523,-0.0523,-0.0651,-0.0528,-0.0528,-0.0528,-0.0527,0,-0.0479,-0.0516,-0.0482,-0.0505,-0.0544,-0.0515,-0.0554,-0.0546,-0.0543,-0.0564,-0.0528,-0.0548,-0.0517,-0.0534,-0.0517,-0.0552,-0.0555,-0.0548,-0.0544,-0.0552,-0.0553,-0.0557,-0.0551,-0.0531,-0.053,-0.0529,-0.0529,0,-0.0587,-0.0566,-0.0603,-0.059,-0.0588,-0.0617,-0.0606,-0.0627,-0.0613,-0.0639,-0.0644,-0.0623,-0.0641,-0.0619,-0.0635,-0.0623,-0.0672,-0.0659,-0.0673,-0.0669,-0.071,-0.0707,-0.0846,-0.0863,-0.0729,-0.073,-0.0731,0,-0.0651,-0.0678,-0.0668,-0.0679,-0.0677,-0.0695,-0.0704,-0.0675,-0.0685,-0.0686,-0.0706,-0.0721,-0.0731,-0.0762,-0.0748,-0.0761,-0.0747,-0.0795,-0.0749,-0.0757,-0.0749,-0.0747,-0.075,-0.0805,-0.0807,-0.0808,-0.0809,0,-0.0768,-0.0756,-0.0769,-0.0779,-0.0789,-0.0795,-0.0799,-0.081,-0.078,-0.0793,-0.0811,-0.0819,-0.0835,-0.0851,-0.0859,-0.0856,-0.0828,-0.0824,-0.0834,-0.0843,-0.085,-0.0847,-0.0699,-0.0821,-0.082,-0.0819,-0.0818,-0.0818,-0.0856,-0.0877,-0.0874,-0.0889,-0.0889,-0.0893,-0.0911,-0.09,-0.0914,-0.0924,-0.0907,-0.0929,-0.0927,-0.0935,-0.0935,-0.0952,-0.0931,-0.0945,-0.0949,-0.0953,-0.096,-0.0847,-0.0953,-0.0953,-0.0952,-0.0952,-0.0952,0,-0.0971,-0.0966,-0.098,-0.0986,-0.0999,-0.097,-0.0973,-0.0985,-0.1005,-0.1005,-0.1016,-0.1036,-0.1051,-0.1038,-0.105,-0.1066,-0.1053,-0.107,-0.1069,-0.1069,-0.0977,-0.0968,-0.108,-0.108,-0.108,-0.108,-0.108,-0.108,-0.1032,-0.1067,-0.1055,-0.1089,-0.1084,-0.1105,-0.1109,-0.1113,-0.1112,-0.1136,-0.1148,-0.1139,-0.1134,-0.1145,-0.1158,-0.1153,-0.116,-0.1181,-0.1172,-0.1088,-0.1075,-0.1063,-0.1054,-0.1182,-0.1183,-0.1262,-0.1263,-0.1264]},{"header":{"parameterUnit":"m.s-1","parameterCategory":1,"la1":30.2991,"la2":30.254,"lo1":-89.0895,"lo2":-89.0444,"dy":0.0017,"dx":0.0017,"nx":28,"ny":28,"refTime":"2023-11-05T03:00:00:Z","depth":0,"parameterNumber":3,"parameterNumberName":"V-component_of_WINDS"},"data":[0,0,0,0,0,0,0,0,0,0,0,0,0,0,0,0,0,0,0,0,0,0,0,0,0,0,0,0,0,0,0,0,0,0,0,0,0,0,0,0,0,0,0,0,0,0,0,0,0,0,0,0,0,0,0,0,0,0,1.1683,1.1682,0,1.163,1.163,1.1629,1.1619,1.162,1.162,1.1621,1.1562,1.156,1.1558,0,0,0,0,0,0,0,0,0,0,0,0,0,1.1771,1.177,1.1683,1.1682,1.1682,1.163,1.1629,1.1629,1.1619,1.162,1.162,1.1621,1.1563,1.156,1.1558,0,0,0,0,0,0,0,0,0,0,0,0,0,1.1727,1.1769,1.1683,1.1671,1.1669,1.163,1.1629,1.1629,1.1619,1.162,1.1621,1.1621,1.1563,1.156,1.1557,1.1526,0,0,1.1548,1.1547,0,0,0,0,0,0,0,0,1.173,1.1724,1.1673,1.1672,1.167,1.1632,1.1639,1.1594,1.1619,1.1638,1.1621,1.1621,1.1584,1.158,1.1568,1.1523,1.152,1.1548,1.1546,1.1545,1.1544,0,0,0,0,0,0,0,1.1733,1.1726,1.1662,1.1673,1.167,1.1667,1.1661,1.163,1.1608,1.1636,1.1636,1.163,1.1583,1.1571,1.1567,1.1519,1.1548,1.1546,1.1544,1.1543,1.1444,1.1443,0,0,0,0,0,0,1.1738,1.1729,1.1664,1.166,1.1702,1.1664,1.1658,1.1643,1.1608,1.1604,1.1629,1.163,1.1576,1.157,1.1565,1.1524,1.1545,1.1542,1.1541,1.1444,1.1443,1.1442,0,0,0,0,0,0,1.174,1.1733,1.1666,1.1694,1.1685,1.1662,1.1646,1.1642,1.163,1.1603,1.1598,1.1621,1.1576,1.1569,1.1535,1.1521,1.1541,1.1538,1.1445,1.1444,1.1443,1.1442,0,0,0,0,0,0,1.1743,1.1734,1.1722,1.1694,1.1684,1.1639,1.1645,1.1641,1.1625,1.1625,1.1594,1.1589,1.1576,1.154,1.1532,1.1518,1.1536,1.1446,1.1445,1.1443,1.1443,1.1441,1.1439,0,0,0,0,0,1.1746,1.1724,1.1722,1.1714,1.167,1.1638,1.1632,1.1619,1.1624,1.1612,1.1594,1.159,1.1525,1.1537,1.1528,1.1512,1.1447,1.1445,1.1443,1.1444,1.1442,1.1439,0,0,0,0,0,0,1.1749,1.172,1.1717,1.1685,1.1664,1.1637,1.1621,1.1616,1.1592,1.1593,1.1576,1.1569,1.1536,1.1521,1.1535,1.1479,1.1486,1.1482,1.149,1.1487,1.1485,1.1488,1.1533,0,0,0,0,0,1.1746,1.1725,1.17,1.1673,1.1663,1.1644,1.163,1.1621,1.1598,1.1589,1.1569,1.1546,1.152,1.1503,1.1477,1.1442,1.1434,1.1427,1.1425,1.1423,1.1419,1.1398,1.1394,1.1436,1.1436,1.1436,0,0,1.174,1.1721,1.1708,1.1674,1.1656,1.1633,1.1636,1.1611,1.1593,1.1584,1.1552,1.1536,1.1509,1.1474,1.1458,1.146,1.1406,1.1421,1.142,1.1417,1.1395,1.1391,1.1388,1.1435,1.1435,1.1435,0,0,1.1715,1.17,1.1676,1.1659,1.1633,1.162,1.1615,1.1588,1.1577,1.1545,1.1538,1.1515,1.1471,1.1451,1.1435,1.1403,1.1398,1.1396,1.1384,1.1363,1.136,1.1356,1.1343,1.1339,1.1393,1.1393,1.1393,0,1.1709,1.1675,1.1663,1.1639,1.1623,1.1616,1.159,1.1574,1.1541,1.1529,1.1534,1.1478,1.1459,1.1418,1.1411,1.1399,1.139,1.1398,1.1361,1.1358,1.1355,1.1342,1.1337,1.1392,1.1392,1.1392,1.1392,0,1.1668,1.1644,1.1628,1.1597,1.158,1.1555,1.1538,1.1521,1.1515,1.1501,1.1467,1.1444,1.1413,1.1404,1.1396,1.1362,1.1364,1.1365,1.1372,1.1351,1.1338,1.1333,1.1392,1.1392,1.1392,1.1392,0,0,1.1643,1.1607,1.1601,1.1586,1.1558,1.1538,1.1512,1.1484,1.1469,1.1447,1.1423,1.1386,1.1387,1.1369,1.1359,1.1341,1.1315,1.1344,1.1343,1.1338,1.1273,1.1271,1.1266,1.1312,1.1311,1.1311,1.1275,0,1.1613,1.1568,1.1557,1.1518,1.1494,1.1488,1.1465,1.1444,1.143,1.1407,1.1392,1.1365,1.1369,1.1358,1.134,1.1322,1.1301,1.1325,1.1288,1.1286,1.1293,1.1259,1.1257,1.1224,1.127,1.1269,1.1269,0,1.1573,1.155,1.1509,1.1483,1.1473,1.1452,1.1425,1.1404,1.1379,1.137,1.1351,1.1343,1.1314,1.1324,1.1282,1.1298,1.1282,1.1271,1.127,1.1264,1.1275,1.125,1.1214,1.1208,1.1261,1.1262,1.1262,0,1.1556,1.1516,1.1485,1.1473,1.1443,1.1428,1.1414,1.1391,1.1374,1.135,1.1338,1.1311,1.1295,1.1272,1.1256,1.1266,1.1215,1.1224,1.1205,1.1206,1.1193,1.1194,1.1151,1.1187,1.1187,1.1187,1.1187,0,1.1523,1.1497,1.1477,1.1458,1.1429,1.1416,1.1387,1.1372,1.1352,1.1328,1.1321,1.1299,1.1281,1.1256,1.1243,1.121,1.1203,1.1193,1.119,1.1193,1.1194,1.1181,1.1182,1.1186,1.1186,1.1186,1.1187,0,1.1498,1.1484,1.145,1.1424,1.1417,1.1396,1.1373,1.1353,1.1341,1.1311,1.1303,1.1282,1.1252,1.1235,1.1197,1.1189,1.115,1.1149,1.1159,1.1157,1.1138,1.1139,1.1084,1.1075,1.1119,1.1118,1.1118,0,1.1477,1.1457,1.1429,1.1414,1.14,1.1376,1.1359,1.1345,1.1328,1.1298,1.1282,1.1252,1.1228,1.118,1.116,1.1131,1.1127,1.111,1.1122,1.1125,1.1124,1.1124,1.1121,1.1107,1.1106,1.1106,1.1106,0,1.144,1.1434,1.1411,1.1385,1.1365,1.1344,1.1323,1.131,1.1293,1.1273,1.1243,1.1224,1.1186,1.1156,1.1125,1.1109,1.1103,1.1102,1.1096,1.1097,1.1103,1.1097,1.1151,1.1103,1.1103,1.1103,1.1104,1.1104,1.1415,1.1396,1.1374,1.1348,1.1331,1.1311,1.1291,1.1276,1.1251,1.122,1.1214,1.1182,1.1156,1.1115,1.1098,1.1072,1.1074,1.1066,1.1063,1.106,1.1059,1.1109,1.1066,1.1066,1.1066,1.1066,1.1066,0,1.1376,1.1361,1.1338,1.1308,1.1287,1.1287,1.1263,1.1245,1.1217,1.1195,1.1172,1.1137,1.1107,1.1085,1.1055,1.1038,1.1034,1.103,1.103,1.1025,1.1059,1.1067,1.1033,1.1033,1.1033,1.1033,1.1033,1.1033,1.1353,1.1321,1.1312,1.1272,1.1257,1.1227,1.1213,1.1194,1.1176,1.1138,1.1114,1.1101,1.1078,1.1045,1.1018,1.1012,1.1,1.0995,1.0989,1.102,1.1023,1.1027,1.1034,1.0994,1.0993,1.0957,1.0957,1.0956]}]]